Location: LDNL
(36.4545°S, 141.6685°E)
Time: 04:22:45
(UTC+11:00)

A-11 Canister half - Pass Details

Date: 14 August 2022
Orbit: 1524 x 1684 km, 47.3° (Epoch: 05 October)

Event Time Altitude Azimuth Distance (km) Brightness Sun altitude
Rises 14:21:20 0° 360° (N) 4,740 12.4 33.6°
Reaches altitude 10° 14:25:46 10° 17° (NNE) 3,737 11.7 33.2°
Maximum altitude 14:31:28 18° 56° (NE) 3,140 10.8 32.6°
Drops below altitude 10° 14:37:06 10° 94° (E) 3,709 10.8 31.9°
Sets 14:41:26 0° 111° (ESE) 4,691 11.1 31.4°
